Time,TemperatureF,DewpointF,PressureIn,WindDirection,WindDirectionDegrees,WindSpeedMPH,WindSpeedGustMPH,Humidity,HourlyPrecipIn,Conditions,Clouds,dailyrainin,SoftwareType,DateUTC
2013-01-27 00:09:00,11.5,-1.1,30.20,NNW,337,1.6,-999.0,56,-99.99,,,0.00,Acu-Link.com,2013-01-27 05:09:00,
2013-01-27 00:24:00,10.8,-1.1,30.20,NNW,337,2.2,-999.0,58,-99.99,,,0.00,Acu-Link.com,2013-01-27 05:24:00,
2013-01-27 00:39:00,10.2,-0.9,30.20,NNW,337,0.0,-999.0,60,-99.99,,,0.00,Acu-Link.com,2013-01-27 05:39:00,
2013-01-27 00:55:00,8.2,-0.7,30.20,NNW,337,1.1,-999.0,66,-99.99,,,0.00,Acu-Link.com,2013-01-27 05:55:00,
2013-01-27 01:10:00,7.2,-1.1,30.21,NNW,337,0.0,-999.0,68,-99.99,,,0.00,Acu-Link.com,2013-01-27 06:10:00,
2013-01-27 01:25:00,6.3,-0.8,30.21,NNW,337,0.0,-999.0,72,-99.99,,,0.00,Acu-Link.com,2013-01-27 06:25:00,
2013-01-27 01:41:00,7.7,-0.3,30.22,NNW,337,2.2,-999.0,69,-99.99,,,0.00,Acu-Link.com,2013-01-27 06:41:00,
2013-01-27 01:56:00,8.8,-0.2,30.22,NNW,337,1.1,-999.0,66,-99.99,,,0.00,Acu-Link.com,2013-01-27 06:56:00,
2013-01-27 02:26:00,9.1,0.1,30.22,NNW,337,1.6,-999.0,66,-99.99,,,0.00,Acu-Link.com,2013-01-27 07:26:00,
2013-01-27 02:42:00,9.1,0.4,30.23,NNW,337,0.0,-999.0,67,-99.99,,,0.00,Acu-Link.com,2013-01-27 07:42:00,
2013-01-27 02:57:00,10.4,0.7,30.23,NNW,337,1.6,-999.0,64,-99.99,,,0.00,Acu-Link.com,2013-01-27 07:57:00,
2013-01-27 03:12:00,10.2,1.2,30.23,NNW,337,0.0,-999.0,66,-99.99,,,0.00,Acu-Link.com,2013-01-27 08:12:00,
2013-01-27 03:27:00,10.0,1.0,30.23,NNW,337,2.2,-999.0,66,-99.99,,,0.00,Acu-Link.com,2013-01-27 08:27:00,
2013-01-27 03:43:00,9.7,1.0,30.24,NNW,337,0.0,-999.0,67,-99.99,,,0.00,Acu-Link.com,2013-01-27 08:43:00,
2013-01-27 03:58:00,8.4,0.7,30.24,NNW,337,1.6,-999.0,70,-99.99,,,0.00,Acu-Link.com,2013-01-27 08:58:00,
2013-01-27 04:16:00,8.8,1.0,30.24,NNW,337,2.2,-999.0,70,-99.99,,,0.00,Acu-Link.com,2013-01-27 09:16:00,
2013-01-27 04:31:00,8.6,0.9,30.24,NNW,337,0.0,-999.0,70,-99.99,,,0.00,Acu-Link.com,2013-01-27 09:31:00,
2013-01-27 04:46:00,8.4,1.3,30.25,NNW,337,0.0,-999.0,72,-99.99,,,0.00,Acu-Link.com,2013-01-27 09:46:00,
2013-01-27 05:02:00,7.7,1.2,30.25,NNW,337,1.1,-999.0,74,-99.99,,,0.00,Acu-Link.com,2013-01-27 10:02:00,
2013-01-27 05:17:00,6.3,0.3,30.26,NNW,337,0.0,-999.0,76,-99.99,,,0.00,Acu-Link.com,2013-01-27 10:17:00,
2013-01-27 05:32:00,5.5,0.2,30.26,NNW,337,0.0,-999.0,78,-99.99,,,0.00,Acu-Link.com,2013-01-27 10:32:00,
2013-01-27 05:47:00,4.8,0.6,30.27,NNW,337,0.0,-999.0,82,-99.99,,,0.00,Acu-Link.com,2013-01-27 10:47:00,
2013-01-27 06:03:00,4.6,0.6,30.27,NNW,337,0.0,-999.0,83,-99.99,,,0.00,Acu-Link.com,2013-01-27 11:03:00,
2013-01-27 06:18:00,4.3,0.5,30.28,NNW,337,0.0,-999.0,84,-99.99,,,0.00,Acu-Link.com,2013-01-27 11:18:00,
2013-01-27 06:33:00,4.1,0.6,30.28,NNW,337,0.0,-999.0,85,-99.99,,,0.00,Acu-Link.com,2013-01-27 11:33:00,
2013-01-27 06:49:00,4.1,0.6,30.28,NNW,337,0.0,-999.0,85,-99.99,,,0.00,Acu-Link.com,2013-01-27 11:49:00,
2013-01-27 07:04:00,4.1,0.9,30.29,NNW,337,1.6,-999.0,86,-99.99,,,0.00,Acu-Link.com,2013-01-27 12:04:00,
2013-01-27 07:19:00,3.4,-0.1,30.29,NNW,337,0.0,-999.0,85,-99.99,,,0.00,Acu-Link.com,2013-01-27 12:19:00,
2013-01-27 07:35:00,3.7,0.8,30.30,NNW,337,0.0,-999.0,87,-99.99,,,0.00,Acu-Link.com,2013-01-27 12:35:00,
2013-01-27 07:50:00,9.5,3.2,30.30,NNW,337,0.0,-999.0,75,-99.99,,,0.00,Acu-Link.com,2013-01-27 12:50:00,
2013-01-27 08:05:00,14.2,3.6,30.32,NNW,337,0.0,-999.0,62,-99.99,,,0.00,Acu-Link.com,2013-01-27 13:05:00,
2013-01-27 08:20:00,16.2,4.4,30.32,NNW,337,2.2,-999.0,59,-99.99,,,0.00,Acu-Link.com,2013-01-27 13:20:00,
2013-01-27 08:36:00,16.3,3.4,30.32,NNW,337,2.7,-999.0,56,-99.99,,,0.00,Acu-Link.com,2013-01-27 13:36:00,
2013-01-27 08:51:00,18.0,3.8,30.33,NNW,337,3.1,-999.0,53,-99.99,,,0.00,Acu-Link.com,2013-01-27 13:51:00,
2013-01-27 09:06:00,18.3,2.8,30.34,NNW,337,3.8,-999.0,50,-99.99,,,0.00,Acu-Link.com,2013-01-27 14:06:00,
2013-01-27 09:22:00,19.9,3.4,30.34,NNW,337,3.1,-999.0,48,-99.99,,,0.00,Acu-Link.com,2013-01-27 14:22:00,
2013-01-27 09:37:00,20.3,2.4,30.35,NNW,337,5.1,-999.0,45,-99.99,,,0.00,Acu-Link.com,2013-01-27 14:37:00,
2013-01-27 09:52:00,20.7,2.2,30.35,NNW,337,1.6,-999.0,44,-99.99,,,0.00,Acu-Link.com,2013-01-27 14:52:00,
2013-01-27 10:08:00,21.9,2.9,30.35,NNW,337,2.7,-999.0,43,-99.99,,,0.00,Acu-Link.com,2013-01-27 15:08:00,
2013-01-27 10:23:00,22.8,2.2,30.36,NW,315,2.7,-999.0,40,-99.99,,,0.00,Acu-Link.com,2013-01-27 15:23:00,
2013-01-27 10:38:00,22.8,1.1,30.37,NNW,337,6.3,-999.0,38,-99.99,,,0.00,Acu-Link.com,2013-01-27 15:38:00,
2013-01-27 10:53:00,23.0,1.8,30.37,North,0,3.8,-999.0,39,-99.99,,,0.00,Acu-Link.com,2013-01-27 15:53:00,
2013-01-27 11:09:00,24.1,2.8,30.37,NNW,337,2.7,-999.0,39,-99.99,,,0.00,Acu-Link.com,2013-01-27 16:09:00,
2013-01-27 11:24:00,25.0,2.4,30.37,NNW,337,2.7,-999.0,37,-99.99,,,0.00,Acu-Link.com,2013-01-27 16:24:00,
2013-01-27 11:39:00,25.3,2.8,30.36,NE,45,3.8,-999.0,37,-99.99,,,0.00,Acu-Link.com,2013-01-27 16:39:00,
2013-01-27 11:55:00,25.9,2.6,30.37,SSW,202,3.1,-999.0,36,-99.99,,,0.00,Acu-Link.com,2013-01-27 16:55:00,
2013-01-27 12:10:00,26.2,2.4,30.36,NNW,337,4.3,-999.0,35,-99.99,,,0.00,Acu-Link.com,2013-01-27 17:10:00,
2013-01-27 12:25:00,27.5,2.2,30.35,NNW,337,6.7,-999.0,33,-99.99,,,0.00,Acu-Link.com,2013-01-27 17:25:00,
2013-01-27 12:41:00,27.7,2.4,30.34,WSW,247,2.7,-999.0,33,-99.99,,,0.00,Acu-Link.com,2013-01-27 17:41:00,
2013-01-27 12:56:00,27.7,1.7,30.35,NNW,337,4.7,-999.0,32,-99.99,,,0.00,Acu-Link.com,2013-01-27 17:56:00,
2013-01-27 13:11:00,28.4,1.7,30.34,NNW,337,4.7,-999.0,31,-99.99,,,0.00,Acu-Link.com,2013-01-27 18:11:00,
2013-01-27 13:26:00,28.8,2.0,30.34,North,0,1.6,-999.0,31,-99.99,,,0.00,Acu-Link.com,2013-01-27 18:26:00,
2013-01-27 13:42:00,30.7,2.3,30.34,North,0,2.7,-999.0,29,-99.99,,,0.00,Acu-Link.com,2013-01-27 18:42:00,
2013-01-27 13:57:00,30.9,0.9,30.33,NNW,337,4.3,-999.0,27,-99.99,,,0.00,Acu-Link.com,2013-01-27 18:57:00,
2013-01-27 14:12:00,30.2,1.8,30.33,NNW,337,5.8,-999.0,29,-99.99,,,0.00,Acu-Link.com,2013-01-27 19:12:00,
2013-01-27 14:28:00,29.1,0.9,30.33,NNW,337,2.2,-999.0,29,-99.99,,,0.00,Acu-Link.com,2013-01-27 19:28:00,
2013-01-27 14:43:00,30.2,1.1,30.33,NNW,337,2.7,-999.0,28,-99.99,,,0.00,Acu-Link.com,2013-01-27 19:43:00,
2013-01-27 14:58:00,30.0,2.4,30.33,South,180,3.1,-999.0,30,-99.99,,,0.00,Acu-Link.com,2013-01-27 19:58:00,
2013-01-27 15:14:00,30.0,2.4,30.33,NNW,337,1.6,-999.0,30,-99.99,,,0.00,Acu-Link.com,2013-01-27 20:14:00,
2013-01-27 15:29:00,29.8,0.8,30.33,NNW,337,8.3,-999.0,28,-99.99,,,0.00,Acu-Link.com,2013-01-27 20:29:00,
2013-01-27 15:44:00,30.0,0.1,30.33,NNW,337,2.7,-999.0,27,-99.99,,,0.00,Acu-Link.com,2013-01-27 20:44:00,
2013-01-27 15:59:00,29.5,0.4,30.34,NNW,337,2.7,-999.0,28,-99.99,,,0.00,Acu-Link.com,2013-01-27 20:59:00,
2013-01-27 16:15:00,28.0,0.7,30.34,NNW,337,2.7,-999.0,30,-99.99,,,0.00,Acu-Link.com,2013-01-27 21:15:00,
2013-01-27 16:30:00,27.5,0.9,30.35,NNW,337,1.1,-999.0,31,-99.99,,,0.00,Acu-Link.com,2013-01-27 21:30:00,
2013-01-27 16:45:00,25.9,0.8,30.36,NNW,337,2.2,-999.0,33,-99.99,,,0.00,Acu-Link.com,2013-01-27 21:45:00,
2013-01-27 17:01:00,25.0,0.0,30.37,NNW,337,1.6,-999.0,33,-99.99,,,0.00,Acu-Link.com,2013-01-27 22:01:00,
2013-01-27 17:16:00,24.4,-0.5,30.38,NNW,337,3.8,-999.0,33,-99.99,,,0.00,Acu-Link.com,2013-01-27 22:16:00,
2013-01-27 17:31:00,23.4,-0.8,30.38,NNW,337,1.6,-999.0,34,-99.99,,,0.00,Acu-Link.com,2013-01-27 22:31:00,
2013-01-27 17:47:00,23.0,-1.1,30.38,NNW,337,0.0,-999.0,34,-99.99,,,0.00,Acu-Link.com,2013-01-27 22:47:00,
2013-01-27 18:02:00,22.3,-0.6,30.39,NNW,337,0.0,-999.0,36,-99.99,,,0.00,Acu-Link.com,2013-01-27 23:02:00,
2013-01-27 18:17:00,20.8,0.9,30.38,NNW,337,0.0,-999.0,41,-99.99,,,0.00,Acu-Link.com,2013-01-27 23:17:00,
2013-01-27 18:32:00,19.2,1.9,30.39,NNW,337,0.0,-999.0,46,-99.99,,,0.00,Acu-Link.com,2013-01-27 23:32:00,
2013-01-27 18:48:00,18.1,0.9,30.38,NNW,337,1.1,-999.0,46,-99.99,,,0.00,Acu-Link.com,2013-01-27 23:48:00,
2013-01-27 19:03:00,17.8,0.5,30.38,NNW,337,1.1,-999.0,46,-99.99,,,0.00,Acu-Link.com,2013-01-28 00:03:00,
2013-01-27 19:18:00,16.9,1.5,30.39,NNW,337,0.0,-999.0,50,-99.99,,,0.00,Acu-Link.com,2013-01-28 00:18:00,
2013-01-27 19:34:00,16.2,1.7,30.39,NNW,337,0.0,-999.0,52,-99.99,,,0.00,Acu-Link.com,2013-01-28 00:34:00,
2013-01-27 19:49:00,15.8,1.3,30.40,NNW,337,0.0,-999.0,52,-99.99,,,0.00,Acu-Link.com,2013-01-28 00:49:00,
2013-01-27 20:04:00,14.9,1.3,30.39,NNW,337,1.1,-999.0,54,-99.99,,,0.00,Acu-Link.com,2013-01-28 01:04:00,
2013-01-27 20:20:00,14.5,2.1,30.39,NNW,337,0.0,-999.0,57,-99.99,,,0.00,Acu-Link.com,2013-01-28 01:20:00,
2013-01-27 20:35:00,13.8,1.1,30.38,NNW,337,0.0,-999.0,56,-99.99,,,0.00,Acu-Link.com,2013-01-28 01:35:00,
2013-01-27 20:50:00,13.1,2.9,30.38,NNW,337,0.0,-999.0,63,-99.99,,,0.00,Acu-Link.com,2013-01-28 01:50:00,
2013-01-27 21:05:00,13.1,1.9,30.40,NNW,337,0.0,-999.0,60,-99.99,,,0.00,Acu-Link.com,2013-01-28 02:05:00,
2013-01-27 21:21:00,12.7,2.6,30.40,NNW,337,0.0,-999.0,63,-99.99,,,0.00,Acu-Link.com,2013-01-28 02:21:00,
2013-01-27 21:36:00,12.9,2.4,30.39,NNW,337,0.0,-999.0,62,-99.99,,,0.00,Acu-Link.com,2013-01-28 02:36:00,
2013-01-27 21:51:00,12.7,2.9,30.39,NNW,337,0.0,-999.0,64,-99.99,,,0.00,Acu-Link.com,2013-01-28 02:51:00,
2013-01-27 22:07:00,12.6,3.1,30.40,NNW,337,0.0,-999.0,65,-99.99,,,0.00,Acu-Link.com,2013-01-28 03:07:00,
2013-01-27 22:22:00,12.7,2.9,30.39,NNW,337,0.0,-999.0,64,-99.99,,,0.00,Acu-Link.com,2013-01-28 03:22:00,
2013-01-27 22:37:00,12.7,3.2,30.39,NNW,337,0.0,-999.0,65,-99.99,,,0.00,Acu-Link.com,2013-01-28 03:37:00,
2013-01-27 22:53:00,11.5,3.3,30.40,NNW,337,0.0,-999.0,69,-99.99,,,0.00,Acu-Link.com,2013-01-28 03:53:00,
2013-01-27 23:08:00,11.1,3.3,30.40,NNW,337,0.0,-999.0,70,-99.99,,,0.00,Acu-Link.com,2013-01-28 04:08:00,
2013-01-27 23:23:00,10.8,2.6,30.39,NNW,337,0.0,-999.0,69,-99.99,,,0.00,Acu-Link.com,2013-01-28 04:23:00,
2013-01-27 23:38:00,10.8,2.6,30.39,NNW,337,0.0,-999.0,69,-99.99,,,0.00,Acu-Link.com,2013-01-28 04:38:00,
2013-01-27 23:54:00,9.9,2.7,30.39,NNW,337,0.0,-999.0,72,-99.99,,,0.00,Acu-Link.com,2013-01-28 04:54:00,